Regional Weather Roundup
Issued by NWS

Home | Current Version | Previous Version | Text Only | Print | Product List | Glossary Off
Versions: 1 2 3 4 5 6 7 8 9 10 11 12 13 14 15 16 17 18 19 20 21 22 23 24 25 26 27 28 29 30 31 32 33 34 35 36 37 38 39 40 41 42 43 44 45 46 47 48 49 50

000
ASUS43 KDTX 031910
RWRMI
MICHIGAN HOURLY REGIONAL WEATHER ROUNDUP
NATIONAL WEATHER SERVICE DETROIT/PONTIAC MI
ISSUED BY NATIONAL WEATHER SERVICE GRAND RAPIDS MI
200 PM EST SAT DEC 03 2016

NOTE: "FAIR" INDICATES FEW OR NO CLOUDS BELOW 12,000 FEET WITH NO
SIGNIFICANT WEATHER AND/OR OBSTRUCTION TO VISIBILITY.

MIZ047>049-052>055-059>063-066>070-074>076-081>083-032000-
SOUTHEAST LOWER MICHIGAN

CITY           SKY/WX    TMP DP  RH WIND       PRES   REMARKS
ADRIAN         CLOUDY    36  29  75 NW5       30.30R WCI  32
ALMA           CLOUDY    38  30  73 W7        30.28R WCI  32
ANN ARBOR      CLOUDY    36  29  75 W6        30.29R WCI  31
BAD AXE        CLOUDY    38  33  82 W7        30.23R WCI  33
DETROIT CITY   CLOUDY    39  31  72 W8        30.28R WCI  33
DETROIT        CLOUDY    38  29  70 W9        30.30R WCI  31
FLINT          CLOUDY    38  30  73 W8        30.28R WCI  32
GROSSE ILE     CLOUDY    38  29  70 W8        30.29R WCI  32
HILLSDALE      CLOUDY    34  27  75 W6        30.28R WCI  29
HOWELL         CLOUDY    37  29  74 W8        30.27R WCI  30

CITY           SKY/WX    TMP DP  RH WIND       PRES   REMARKS
JACKSON        CLOUDY    36  29  75 SW8       30.30R WCI  30
LANSING        CLOUDY    37  28  70 W7        30.28R WCI  32
MASON          CLOUDY    35  31  85 W3        30.28R
MONROE         CLOUDY    37  31  78 W8        30.31R WCI  31
MT. CLEMENS    CLOUDY    40  31  68 W9        30.25R WCI  34
PONTIAC        CLOUDY    37  29  72 W9        30.25R WCI  30
PORT HOPE        N/A     41  33  73 NW8       30.20S
PORT HURON     CLOUDY    39  32  75 W7        30.26R WCI  34
TRI CITIES     CLOUDY    39  33  79 SW9       30.26  WCI  33
YPSILANTI      CLOUDY    39  29  67 W14       30.30R WCI  31
$$
MIZ043>046-050>051-056>058-064>065-071>073-077>080-032000-
SOUTHWEST LOWER MICHIGAN

CITY           SKY/WX    TMP DP  RH WIND       PRES   REMARKS
BATTLE CREEK   CLOUDY    36  30  79 SW10      30.30R WCI  28
BENTON HARBOR  CLOUDY    37  25  61 W6        30.32R WCI  32
BIG RAPIDS     CLOUDY    38  30  71 W8        30.25R WCI  32
COLDWATER      CLOUDY    37  26  65 W5        30.29S WCI  33
HOLLAND        CLOUDY    37  28  70 W5        30.30R WCI  33
GRAND RAPIDS   CLOUDY    36  28  73 W7        30.29R WCI  30
KALAMAZOO      CLOUDY    37  27  67 W6        30.31R WCI  32
MARSHALL       CLOUDY    36  29  76 SW5       30.30R WCI  32
MOUNT PLEASANT CLOUDY    38  30  72 W5        30.24S WCI  35
MUSKEGON       CLOUDY    36  28  73 W6        30.30R WCI  31
STURGIS        CLOUDY    37  26  65 W3        30.29F
$$
MIZ016>042-032000-
NORTHERN LOWER MICHIGAN

CITY           SKY/WX    TMP DP  RH WIND       PRES   REMARKS
ALPENA         CLOUDY    41  30  65 N8        30.21S
BEAVER ISLAND  CLOUDY    38  32  79 NW8       30.23S WCI  32
BELLAIRE       CLOUDY    36  35  95 CALM      30.23S
CADILLAC       CLOUDY    34  32  92 SW12      30.21R WCI  26
CHARLEVOIX     CLOUDY    39  33  77 N7        30.25S WCI  34
GAYLORD        LGT SNOW  35  31  85 NW3       30.19S FOG
HOUGHTON LAKE  PTSUNNY   37  32  82 W6        30.21S WCI  32
MANISTEE       CLOUDY    37  31  78 W6        30.26R WCI  32
OSCODA         CLOUDY    42  31  64 W7        30.20F
PELLSTON       CLOUDY    39  30  70 N8        30.22S WCI  33
TRAVERSE CITY  LGT RAIN  39  34  82 N5        30.22S
LUDINGTON      CLOUDY    36  30  80 S7        30.27R WCI  30
$$
MIZ007>008-015-032000-
EASTERN UPPER MICHIGAN

CITY           SKY/WX    TMP DP  RH WIND       PRES   REMARKS
KINROSS        LGT SNOW  34  31  88 NW8       30.21R FOG     WCI  27
MACKINAC ISLAN CLOUDY    38  31  75 NW5       30.21S WCI  34
NEWBERRY       PTSUNNY   37  32  80 N9        30.21S WCI  31
S. S. MARIE    CLOUDY    38  33  82 NW9       30.19S WCI  31
$$
MIZ004>006-011>014-085-032000-
CENTRAL UPPER MICHIGAN

CITY           SKY/WX    TMP DP  RH WIND       PRES   REMARKS
MANISTIQUE     CLOUDY    37  32  82 NW3       30.22F
ESCANABA       CLOUDY    37  28  70 CALM      30.23F
MENOMINEE      CLOUDY    35  27  72 VRB5      30.26S WCI  31
SAWYER-GWINN   CLOUDY    36  27  69 NW5       30.21F WCI  32
$$
MIZ001>003-009>011-084-032000-
WESTERN UPPER MICHIGAN

CITY           SKY/WX    TMP DP  RH WIND       PRES   REMARKS
IRON MOUNTAIN  CLOUDY    34  24  67 NW3       30.20F
HOUGHTON       CLOUDY    33  28  81 W5        30.20F WCI  29
COPPER HARBOR    N/A     35  30  82 CALM      30.22F
IRONWOOD       CLOUDY    32  27  81 W5        30.23S WCI  27
$$

ABBREVIATIONS USED IN REMARKS
   TC - TEMPERATURE IN CELSIUS
  WCI - WIND CHILL INDEX
   HX - HEAT INDEX
  VSB - VISIBILITY





USA.gov is the U.S. government's official web portal to all federal, state and local government web resources and services.